Flag for Germany Weather past 2 weeks in Oberursel (Taunus), Hesse, Germany

Now
64 °F

Overcast.


Feels Like: 64 °F
Forecast: 53 / 82 °F
Wind: 2 mph from Northeast

Location: Frankfurt / M-Flughafen

Current Time: Jul 25, 2014 at 1:48:41 AM

Latest Report: Jul 25, 2014 at 1:00 AM


Visibility: 22 mi

Pressure: 29.94 "Hg

Humidity: 90%

Dew point: 61 °F

Location of Oberursel (Taunus)Location

Historic Weather in Oberursel (Taunus) — Graph

°F

Oberursel (Taunus) temperature yesterday

Maximum temperature yesterday: 80 °F (at 2:00 PM)
Minimum temperature yesterday: 65 °F (at 5:00 AM)
Average temperature yesterday: 72 °F

Past Weeks' High & Low Weather Summary

 TemperatureHumidityPressure
High93 °F (Jul 19, 5:00 PM)96% (Jul 10, 7:00 AM)30.19 "Hg (Jul 10, 7:00 AM)
Low55 °F (Jul 10, 4:00 AM)22% (Jul 18, 6:00 PM)29.75 "Hg (Jul 10, 2:00 AM)
Average71 °F67%29.95 "Hg
* Reported Jul 10 1:00 AM — Jul 25 1:00 AM, Oberursel (Taunus), Weather by CustomWeather, © 2014

Note: Actual official high and low records may vary slightly from our data, if they occured in-between our weather recording intervals... More about our weather records

Advertising

Oberursel (Taunus) weather history for previous 24 hours

 ConditionsComfort  
Time TempWeatherWind HumidityBarometerVisibility
1:00 AM
Jul 25
64 °FOvercast.2 mph90%29.94 "Hg22 mi
12:00 AM65 °FLight rain. Overcast.5 mph84%29.94 "Hg25 mi
10:00 PM
Jul 24
70 °FThunderstorms. Passing clouds.2 mph64%29.94 "Hg25 mi
9:00 PM70 °FThunderstorms. Partly sunny.5 mph62%29.91 "Hg31 mi
8:00 PM72 °FOvercast.5 mph54%29.90 "Hg25 mi
7:00 PM75 °FOvercast.3 mph47%29.88 "Hg25 mi
6:00 PM74 °FThunderstorms. Partly sunny.5 mph41%29.90 "Hg22 mi
4:00 PM79 °FPartly sunny.5 mph38%29.90 "Hg22 mi
3:00 PM79 °FPartly sunny.5 mph39%29.90 "Hg25 mi
2:00 PM80 °FScattered clouds.5 mph36%29.91 "Hg25 mi
1:00 PM79 °FPassing clouds.5 mph39%29.92 "Hg28 mi
12:00 PM76 °FPassing clouds.6 mph45%29.93 "Hg25 mi
10:00 AM72 °FPassing clouds.6 mph56%29.94 "Hg25 mi
9:00 AM70 °FPassing clouds.5 mph59%29.94 "Hg25 mi
8:00 AM68 °FPassing clouds.5 mph62%29.94 "Hg25 mi
7:00 AM67 °FPassing clouds.6 mph64%29.93 "Hg25 mi
6:00 AM66 °FPassing clouds.3 mph65%29.93 "Hg25 mi
5:00 AM65 °FPassing clouds.2 mph70%29.92 "Hg25 mi
4:00 AM67 °FPassing clouds.3 mph68%29.94 "Hg25 mi
3:00 AM68 °FPassing clouds.3 mph70%29.95 "Hg25 mi
2:00 AM69 °FPassing clouds.2 mph67%29.95 "Hg25 mi
1:00 AM71 °FPassing clouds.2 mph65%29.96 "Hg25 mi
Weather by CustomWeather, © 2014

See weather overviewHow to use our weather pages